User: anonymous   Login
Location: Unspecified
(0.0000°N, 0.0000°E)
Time: 22:55:23
(UTC+00:00)
Language:

Max Valier Satellite - Orbit

View from above orbital plane
View from above orbital plane
View from above satellite
View from above satellite

Ground track
Ground track

The orbit data is extracted from the following two-line orbital elements,

1 42778U 17036P   18019.38134349  .00000925  00000-0  44806-4 0  9991
2 42778  97.4248  81.4264 0011683 225.6349 134.3930 15.20983839 31880
Epoch (UTC): 19 January 2018 09:09:08
Eccentricity: 0.0011683
inclination: 97.4248°
perigee height: 495 km
apogee height: 511 km
right ascension of ascending node: 81.4264°
argument of perigee: 225.6349°
revolutions per day: 15.20983839
mean anomaly at epoch: 134.3930°
orbit number at epoch: 3188

The dashed part of the orbit path shows where the satellite is in the earth's shadow,  

DLR